TimeCDT,TemperatureF,Dew PointF,Humidity,Sea Level PressureIn,VisibilityMPH,Wind Direction,Wind SpeedMPH,Gust SpeedMPH,PrecipitationIn,Events,Conditions,WindDirDegrees,DateUTC
12:55 AM,39.0,28.0,65,30.02,10.0,NNW,6.9,-,N/A,,Clear,330,2012-10-31 05:55:00
1:55 AM,37.0,28.0,70,30.02,10.0,NW,5.8,-,N/A,,Clear,320,2012-10-31 06:55:00
2:55 AM,36.0,28.0,73,30.02,10.0,NW,6.9,-,N/A,,Clear,320,2012-10-31 07:55:00
3:55 AM,35.1,27.0,72,30.01,10.0,NNW,6.9,-,N/A,,Clear,330,2012-10-31 08:55:00
4:55 AM,34.0,27.0,75,30.01,10.0,NW,5.8,-,N/A,,Clear,320,2012-10-31 09:55:00
5:55 AM,34.0,26.1,73,30.02,10.0,NW,6.9,-,N/A,,Clear,320,2012-10-31 10:55:00
6:55 AM,33.1,26.1,75,30.03,10.0,NNW,6.9,-,N/A,,Clear,330,2012-10-31 11:55:00
7:55 AM,32.0,25.0,75,30.04,10.0,NNW,8.1,-,N/A,,Clear,330,2012-10-31 12:55:00
8:55 AM,35.1,26.1,70,30.06,10.0,NNW,10.4,-,N/A,,Clear,330,2012-10-31 13:55:00
9:55 AM,37.9,25.0,60,30.06,10.0,North,10.4,-,N/A,,Clear,360,2012-10-31 14:55:00
10:55 AM,43.0,24.1,47,30.06,10.0,Variable,6.9,-,N/A,,Clear,0,2012-10-31 15:55:00
11:55 AM,48.0,19.9,33,30.07,10.0,NNW,9.2,-,N/A,,Clear,330,2012-10-31 16:55:00
12:55 PM,51.1,18.0,27,30.05,10.0,NW,8.1,-,N/A,,Clear,320,2012-10-31 17:55:00
1:55 PM,52.0,14.0,22,30.03,10.0,NNW,10.4,-,N/A,,Clear,340,2012-10-31 18:55:00
2:55 PM,52.0,16.0,24,30.01,10.0,NW,8.1,-,N/A,,Clear,310,2012-10-31 19:55:00
3:55 PM,52.0,17.1,25,30.01,10.0,WNW,6.9,-,N/A,,Clear,300,2012-10-31 20:55:00
4:55 PM,51.1,18.0,27,30.01,10.0,WNW,8.1,-,N/A,,Clear,300,2012-10-31 21:55:00
5:55 PM,48.0,17.1,29,30.02,10.0,NW,4.6,-,N/A,,Clear,310,2012-10-31 22:55:00
6:55 PM,39.9,24.1,53,30.03,10.0,Calm,Calm,-,N/A,,Clear,0,2012-10-31 23:55:00
7:55 PM,37.0,25.0,62,30.04,10.0,West,3.5,-,N/A,,Scattered Clouds,280,2012-11-01 00:55:00
8:55 PM,36.0,25.0,64,30.04,10.0,Calm,Calm,-,N/A,,Clear,0,2012-11-01 01:55:00
9:55 PM,34.0,27.0,75,30.04,10.0,Calm,Calm,-,N/A,,Clear,0,2012-11-01 02:55:00
10:55 PM,30.9,26.1,82,30.03,10.0,Calm,Calm,-,N/A,,Clear,0,2012-11-01 03:55:00
11:55 PM,30.9,26.1,82,30.03,10.0,West,3.5,-,N/A,,Clear,260,2012-11-01 04:55:00